STARLINK-1623, 46129

Orbit data source: Space-Track

STARLINK-1623, 46129 is a payload satellite owned by SpaceX/Seattle (US) in LEO that was launched on Tue, 18 Aug 2020 UTC via an FALCON 9 launch vehicle from the Air Force Eastern Test Range (AFETR). Payload-class satellites include a variety of spacecraft equipped with specific instruments for various scientific and technological missions. These include communications satellites like Starlink; space stations such as the ISS; scientific satellites like the Hubble; Earth observation satellites from companies like Planet Labs, Umbra, and HawkEye 360; GPS; miniature CubeSats for education and research; and military/defense satellites.

Loading next visibility...
Identifier
46129, 2020-057N
Orbit
LEO
Last TLE update
10 hours ago
Origin
Manufacturer
SpaceX/Seattle
Mission
Operational Commercial Communications
Bus & Motor
STARLINK, Unknown motor
Mass
260 kg wet, ~248 kg dry
Launch date (UTC)
2020-08-18 (5 years ago)
Launch vehicle
FALCON 9
Launch site
Air Force Eastern Test Range (AFETR)
Object type
Payload
Rocket body
Debris
Shape & HBR
Box + 1 Pan, 8.86 m
Radar Cross Section
13.562 m², Large (>1 m²)

Expand to show TLE details & history

TLE from 10 hours ago
0 STARLINK-1623
1 46129U 20057N   25183.78997726 -.00000305  00000-0 -15990-5 0  9999
2 46129  53.0568 318.4593 0001253  88.2496 271.8637 15.06390867268962
Epoch: 2025-07-02T18:57Z
TLE epoch observation values (Epoch: 2025-07-02T18:57:34.035Z)
Latitude
0.00003°
Longitude
113.00148°
Altitude
548.091 km
Speed
7.589 km/s
True Right ascension
21h 13m 50s
True Declination
0° 00' 00"
Sunlit
Object was in full shadow at epoch
Visualization orbit readout
Latitude
47.80266°
Longitude
166.734°
Altitude
551.751 km
Speed
7.592 km/s
Apparent Right ascension
02h 44m 28s
Apparent Declination
7° 02' 02"
Sunlit
Object is in daylight
Visualization observer readout
Local Sidereal Time
16:34:08
Azimuth
34.727° NE
Elevation
-36.666°
Doppler factor
1
Orbital elements
Apogee altitude
548.378 km
Perigee altitude
546.642 km
Semi-major axis
6,925.647 km
Eccentricity
0.00013
Inclination
53.0568°
RAAN
318.4593°
Arg. of periapsis
88.2496°
True anomaly
Unknown
Mean anomaly
271.8637°
Eccentric anomaly
Unknown
Mean motion
3.76576 °/min
Orbital period
95.6 mins
BSTAR
-0.000001599
Loading maneuver chart data...
Loading SW <> Apogee altitude chart data...

STARLINK-1623 Visibility forecast

Observer location: undefined°, undefined°

Span
Click to sort rows by Start time (UTC) header in descending order
Start Az.
Max El. time (UTC)
Max El. Az.
Max El.
End time (UTC)
End Az.
7 mins2025-07-03 11:01:43.681Z198.9° SSW2025-07-03 11:05:43.681Z122.002° SE30.109°2025-07-03 11:08:43.681Z68.474° E
5 mins2025-07-03 12:42:43.681Z275.467° WNW2025-07-03 12:44:43.681Z321.931° NNW29.902°2025-07-03 12:47:43.681Z29.596° NE
5 mins2025-07-03 17:44:43.681Z336.31° NNW2025-07-03 17:46:43.681Z30.183° NE32.742°2025-07-03 17:49:43.681Z97.317° ESE
6 mins2025-07-03 19:23:43.681Z280.863° WNW2025-07-03 19:25:43.681Z242.576° WSW26.161°2025-07-03 19:29:43.681Z167.579° S
|